Dublin, Ireland

7:29 AM IST on August 21, 2017 (GMT +0100)
Dublin International

Weather History for EIDW - January, 2013

Change the Weather History Date:

Saturday, January 12, 2013

  Actual Average Record
Temperature  
Mean Temperature 40 °F -  
Max Temperature 44 °F 46 °F 55 °F (1997)
Min Temperature 35 °F 36 °F 32 °F (2003)
Degree Days  
Heating Degree Days 26    
Moisture  
Dew Point 38 °F    
Average Humidity 87    
Maximum Humidity 100    
Minimum Humidity 67    
Precipitation  
Precipitation 0.00 in 0.08 in - ()
Sea Level Pressure  
Sea Level Pressure 29.87 in    
Wind  
Wind Speed 10 mph ()    
Max Wind Speed 16 mph    
Max Gust Speed -    
Visibility 6.4 miles    
Events Rain    
Averages and records for this station are not official NWS values.
T = Trace of Precipitation, MM = Missing Value Source: Averaged Metar Reports

Daily Weather History Graph

Daily Weather History Graph

Search for Another Location

Airport or City:

Trip Planner

Search our weather history database for the weather conditions in past years. The results will help you decide how hot, cold, wet, or windy it might be!

Date:

Astronomy

Jan. 12, 2013 Rise Set
Actual Time 8:35 AM GMT 4:31 PM GMT
Civil Twilight 7:54 AM GMT 5:13 PM GMT
Nautical Twilight 7:09 AM GMT 5:57 PM GMT
Astronomical Twilight 6:27 AM GMT 6:39 PM GMT
Moon 8:30 AM GMT (1/12) 6:00 PM GMT (1/12)
Length of Visible Light 9h 19m
Length of Day
7h 56m
New Moon, 1% of the Moon is Illuminated
Jan 12
New Moon
Jan 18
First Quarter
Jan 27
Full
Feb 3
Last Quarter
Feb 10
New

Hourly Weather History & Observations

Time (GMT) Temp. Windchill Dew Point Humidity Pressure Visibility Wind Dir Wind Speed Gust Speed Precip Events Conditions
12:00 AM 38 °F - 37 °F 97% 29.81 in 12 mi ESE 6.7 mph - - Rain Light Rain Showers
12:00 AM 37.4 °F 32.1 °F 37.4 °F 100% 29.80 in 6.2 mi ESE 6.9 mph - N/A   Mostly Cloudy
12:30 AM 42.8 °F 39.3 °F 41.0 °F 93% 29.80 in 6.2 mi ESE 5.8 mph - N/A Rain Light Rain Showers
1:00 AM 44.6 °F 37.4 °F 42.8 °F 93% 29.80 in 5.0 mi SE 16.1 mph - N/A Rain Light Rain Showers
1:30 AM 42.8 °F 39.3 °F 41.0 °F 93% 29.77 in 6.2 mi SE 5.8 mph - N/A   Mostly Cloudy
2:00 AM 42.8 °F 38.0 °F 41.0 °F 93% 29.77 in 6.2 mi SE 8.1 mph - N/A   Mostly Cloudy
2:30 AM 44.6 °F 38.4 °F 42.8 °F 93% 29.77 in 6.2 mi ESE 12.7 mph - N/A   Mostly Cloudy
3:00 AM 44.6 °F 38.4 °F 42.8 °F 93% 29.77 in 6.2 mi ESE 12.7 mph - N/A   Mostly Cloudy
3:30 AM 44.6 °F 38.8 °F 42.8 °F 93% 29.77 in 6.2 mi SE 11.5 mph - N/A   Mostly Cloudy
4:00 AM 44.6 °F 38.1 °F 42.8 °F 93% 29.77 in 6.2 mi SE 13.8 mph - N/A   Mostly Cloudy
4:30 AM 44.6 °F 38.8 °F 42.8 °F 93% 29.77 in 6.2 mi ESE 11.5 mph - N/A   Mostly Cloudy
5:00 AM 44.6 °F 39.2 °F 41.0 °F 87% 29.77 in 6.2 mi ESE 10.4 mph - N/A   Mostly Cloudy
5:30 AM 42.8 °F 37.5 °F 41.0 °F 93% 29.77 in 6.2 mi East 9.2 mph - N/A   Mostly Cloudy
6:00 AM 44 °F - 41 °F 86% 29.78 in 16 mi East 8.9 mph - -   Partly Cloudy
6:00 AM 42.8 °F 37.5 °F 41.0 °F 93% 29.77 in 6.2 mi East 9.2 mph - N/A   Mostly Cloudy
6:30 AM 44.6 °F 40.2 °F 41.0 °F 87% 29.77 in 6.2 mi East 8.1 mph - N/A   Mostly Cloudy
7:00 AM 42.8 °F 38.0 °F 41.0 °F 93% 29.77 in 6.2 mi East 8.1 mph - N/A   Mostly Cloudy
7:30 AM 44.6 °F 39.7 °F 41.0 °F 87% 29.77 in 6.2 mi East 9.2 mph - N/A   Mostly Cloudy
8:00 AM 44.6 °F 39.7 °F 41.0 °F 87% 29.77 in 6.2 mi ENE 9.2 mph - N/A   Mostly Cloudy
8:30 AM 42.8 °F 37.5 °F 41.0 °F 93% 29.80 in 6.2 mi NE 9.2 mph - N/A   Mostly Cloudy
9:00 AM 42.8 °F 36.6 °F 41.0 °F 93% 29.80 in 6.2 mi East 11.5 mph - N/A   Mostly Cloudy
9:30 AM 42.8 °F 37.0 °F 41.0 °F 93% 29.80 in 6.2 mi East 10.4 mph - N/A   Mostly Cloudy
10:00 AM 42.8 °F 36.2 °F 41.0 °F 93% 29.80 in 5.6 mi ENE 12.7 mph - N/A   Mostly Cloudy
10:30 AM 42.8 °F 35.4 °F 41.0 °F 93% 29.83 in 4.3 mi ENE 15.0 mph - N/A   Mostly Cloudy
11:00 AM 42.8 °F 35.4 °F 41.0 °F 93% 29.83 in 4.3 mi ENE 15.0 mph - N/A   Mostly Cloudy
11:30 AM 42.8 °F 36.2 °F 39.2 °F 87% 29.83 in 5.0 mi ENE 12.7 mph - N/A   Mostly Cloudy
12:00 PM 43 °F - 40 °F 85% 29.86 in 6 mi ENE 13.4 mph - -   Mist
12:00 PM 42.8 °F 36.2 °F 39.2 °F 87% 29.83 in 5.6 mi ENE 12.7 mph - N/A   Mostly Cloudy
12:30 PM 42.8 °F 35.4 °F 39.2 °F 87% 29.86 in 5.6 mi ENE 15.0 mph - N/A   Mostly Cloudy
1:00 PM 42.8 °F 36.2 °F 39.2 °F 87% 29.86 in 5.6 mi ENE 12.7 mph - N/A   Mostly Cloudy
1:30 PM 42.8 °F 36.2 °F 39.2 °F 87% 29.86 in 6.2 mi ENE 12.7 mph - N/A   Mostly Cloudy
2:00 PM 42.8 °F 36.2 °F 39.2 °F 87% 29.86 in 6.2 mi ENE 12.7 mph - N/A   Mostly Cloudy
2:30 PM 42.8 °F 36.6 °F 39.2 °F 87% 29.86 in 6.2 mi ENE 11.5 mph - N/A   Mostly Cloudy
3:00 PM 42.8 °F 36.6 °F 39.2 °F 87% 29.89 in 6.2 mi East 11.5 mph - N/A   Mostly Cloudy
3:30 PM 41.0 °F 33.9 °F 37.4 °F 87% 29.89 in 6.2 mi East 12.7 mph - N/A   Mostly Cloudy
4:00 PM 41.0 °F 33.9 °F 37.4 °F 87% 29.92 in 6.2 mi ENE 12.7 mph - N/A   Scattered Clouds
4:30 PM 41.0 °F 34.3 °F 35.6 °F 81% 29.92 in 6.2 mi ENE 11.5 mph - N/A   Mostly Cloudy
5:00 PM 41.0 °F 34.3 °F 35.6 °F 81% 29.95 in 6.2 mi ENE 11.5 mph - N/A   Mostly Cloudy
5:30 PM 41.0 °F 33.9 °F 35.6 °F 81% 29.95 in 6.2 mi ENE 12.7 mph - N/A   Mostly Cloudy
6:00 PM 40 °F - 33 °F 67% 29.98 in 12 mi East 15.7 mph - -   Partly Cloudy
6:00 PM 39.2 °F 30.5 °F 33.8 °F 81% 29.95 in 6.2 mi East 16.1 mph - N/A   Scattered Clouds
6:30 PM 39.2 °F 30.8 °F 32.0 °F 75% 29.95 in 6.2 mi East 15.0 mph - N/A   Scattered Clouds
7:00 PM 39.2 °F 30.8 °F 32.0 °F 75% 29.98 in 6.2 mi East 15.0 mph - N/A   Partly Cloudy
7:30 PM 37.4 °F 28.5 °F 30.2 °F 75% 29.98 in 6.2 mi East 15.0 mph - N/A   Partly Cloudy
8:00 PM 37.4 °F 28.9 °F 32.0 °F 81% 30.01 in 6.2 mi East 13.8 mph - N/A   Partly Cloudy
8:30 PM 37.4 °F 29.3 °F 32.0 °F 81% 30.01 in 6.2 mi East 12.7 mph - N/A   Partly Cloudy
9:00 PM 35.6 °F 28.0 °F 30.2 °F 81% 30.04 in 6.2 mi East 10.4 mph - N/A   Partly Cloudy
9:30 PM 35.6 °F 28.6 °F 32.0 °F 87% 30.04 in 6.2 mi East 9.2 mph - N/A   Partly Cloudy
10:00 PM 35.6 °F 27.5 °F 30.2 °F 81% 30.04 in 6.2 mi East 11.5 mph - N/A   Partly Cloudy
10:30 PM 35.6 °F 28.6 °F 32.0 °F 87% 30.06 in 6.2 mi East 9.2 mph - N/A   Partly Cloudy
11:00 PM 37.4 °F 29.8 °F 32.0 °F 81% 30.06 in 6.2 mi East 11.5 mph - N/A   Scattered Clouds
11:30 PM 35.6 °F 28.6 °F 30.2 °F 81% 30.06 in 6.2 mi East 9.2 mph - N/A   Scattered Clouds